Weather History for Waukesha, WI

Change the Weather History Date:

Saturday, September 21, 2013

  Actual Average Record
Temperature  
Mean Temperature 48 °F -  
Max Temperature 55 °F 65 °F 87 °F (2005)
Min Temperature 42 °F 49 °F 35 °F (1956)
Degree Days  
Heating Degree Days 16    
Moisture  
Dew Point 47 °F    
Average Humidity 86    
Maximum Humidity 100    
Minimum Humidity 63    
Precipitation  
Precipitation 0.00 in - - ()
Sea Level Pressure  
Sea Level Pressure 29.89 in    
Wind  
Wind Speed 9 mph (WNW)    
Max Wind Speed 14 mph    
Max Gust Speed 18 mph    
Visibility 10 miles    
Events      
Averages and records for this station are not official NWS values.
T = Trace of Precipitation, MM = Missing Value Source: NWS Daily Summary

Daily Weather History Graph

Daily Weather History Graph

Search for Another Location

Airport:

Trip Planner

Search our weather history database for the weather conditions in past years. The results will help you decide how hot, cold, wet, or windy it might be!

Date:

Astronomy

Sep. 21, 2013 Rise Set
Actual Time 6:39 AM CDT 6:51 PM CDT
Civil Twilight 6:11 AM CDT 7:19 PM CDT
Nautical Twilight 5:37 AM CDT 7:53 PM CDT
Astronomical Twilight 5:03 AM CDT 8:27 PM CDT
Moon 7:57 PM CDT (9/21) 9:02 AM CDT (9/21)
Length of Visible Light 13h 08m
Length of Day
12h 12m
Waning Gibbous, 94% of the Moon is Illuminated
Sep 21
Waning Gibbous
Sep 26
Last Quarter
Oct 4
New
Oct 11
First Quarter
Oct 18
Full

Hourly Weather History & Observations

Time (CDT) Temp. Dew Point Humidity Pressure Visibility Wind Dir Wind Speed Gust Speed Precip Events Conditions
12:15 AM 53.6 °F 51.8 °F 94% 29.83 in 10.0 mi West 11.5 mph - N/A   Scattered Clouds
12:35 AM 53.6 °F 51.8 °F 94% 29.83 in 10.0 mi West 10.4 mph - N/A   Clear
12:55 AM 53.6 °F 51.8 °F 94% 29.83 in 10.0 mi West 10.4 mph - N/A   Clear
1:15 AM 53.6 °F 51.8 °F 94% 29.83 in 10.0 mi West 11.5 mph - N/A   Clear
1:35 AM 53.6 °F 51.8 °F 94% 29.83 in 10.0 mi West 12.7 mph 17.3 mph N/A   Clear
1:55 AM 53.6 °F 51.8 °F 94% 29.83 in 10.0 mi WNW 11.5 mph - N/A   Clear
2:15 AM 53.6 °F 50.0 °F 88% 29.83 in 10.0 mi NW 8.1 mph - N/A   Clear
2:35 AM 51.8 °F 50.0 °F 94% 29.83 in 10.0 mi NW 6.9 mph - N/A   Clear
2:55 AM 51.8 °F 50.0 °F 94% 29.83 in 10.0 mi NW 4.6 mph - N/A   Clear
3:15 AM 51.8 °F 50.0 °F 94% 29.83 in 10.0 mi WNW 9.2 mph - N/A   Clear
3:35 AM 51.8 °F 50.0 °F 94% 29.83 in 10.0 mi WNW 8.1 mph - N/A   Clear
3:55 AM 51.8 °F 50.0 °F 94% 29.83 in 10.0 mi WNW 6.9 mph - N/A   Clear
4:15 AM 50.0 °F 50.0 °F 100% 29.83 in 10.0 mi NW 6.9 mph - N/A   Clear
4:35 AM 50.0 °F 50.0 °F 100% 29.84 in 10.0 mi NW 9.2 mph - N/A   Clear
4:55 AM 50.0 °F 48.2 °F 94% 29.84 in 10.0 mi WNW 8.1 mph - N/A   Clear
5:15 AM 50.0 °F 48.2 °F 94% 29.85 in 10.0 mi WNW 8.1 mph - N/A   Clear
5:35 AM 50.0 °F 48.2 °F 94% 29.85 in 10.0 mi WNW 8.1 mph - N/A   Clear
5:45 AM 50.0 °F 48.2 °F 94% 29.86 in 10.0 mi WNW 9.2 mph - N/A   Clear
6:45 AM 48.2 °F 46.4 °F 93% 29.87 in 10.0 mi NW 10.4 mph - N/A   Clear
7:45 AM 50.0 °F 46.4 °F 87% 29.88 in 10.0 mi WNW 11.5 mph - N/A   Clear
8:45 AM 51.8 °F 46.4 °F 82% 29.89 in 10.0 mi NW 11.5 mph - N/A   Clear
9:45 AM 53.6 °F 46.4 °F 77% 29.89 in 10.0 mi NW 12.7 mph - N/A   Scattered Clouds
10:45 AM 53.6 °F 44.6 °F 72% 29.90 in 10.0 mi NW 13.8 mph - N/A   Mostly Cloudy
11:45 AM 55.4 °F 42.8 °F 63% 29.91 in 10.0 mi WNW 11.5 mph - N/A   Overcast
12:45 PM 55.4 °F 42.8 °F 63% 29.92 in 10.0 mi NW 13.8 mph - N/A   Overcast
1:45 PM 53.6 °F 42.8 °F 67% 29.92 in 10.0 mi WNW 12.7 mph 18.4 mph N/A   Overcast
2:45 PM 55.4 °F 44.6 °F 67% 29.92 in 10.0 mi WNW 11.5 mph - N/A   Overcast
3:45 PM 53.6 °F 42.8 °F 67% 29.92 in 10.0 mi WNW 12.7 mph - N/A   Overcast
4:45 PM 55.4 °F 42.8 °F 63% 29.92 in 10.0 mi WNW 9.2 mph - N/A   Overcast
5:45 PM 53.6 °F 42.8 °F 67% 29.91 in 10.0 mi WNW 4.6 mph - N/A   Overcast
6:45 PM 51.8 °F 44.6 °F 76% 29.92 in 10.0 mi Calm Calm - N/A   Mostly Cloudy
7:45 PM 51.8 °F 46.4 °F 82% 29.93 in 10.0 mi WSW 4.6 mph - N/A   Mostly Cloudy
8:45 PM 51.8 °F 46.4 °F 82% 29.94 in 10.0 mi NW 4.6 mph - N/A   Overcast
9:15 PM 50.0 °F 42.8 °F 76% 29.95 in 10.0 mi NNW 3.5 mph - N/A   Scattered Clouds
9:35 PM 48.2 °F 42.8 °F 82% 29.95 in 10.0 mi Calm Calm - N/A   Clear
9:55 PM 48.2 °F 42.8 °F 82% 29.96 in 10.0 mi NW 3.5 mph - N/A   Clear
10:15 PM 46.4 °F 42.8 °F 87% 29.96 in 10.0 mi Calm Calm - N/A   Scattered Clouds
10:35 PM 46.4 °F 42.8 °F 87% 29.96 in 10.0 mi Calm Calm - N/A   Clear
10:55 PM 46.4 °F 42.8 °F 87% 29.96 in 10.0 mi Calm Calm - N/A   Clear
11:15 PM 42.8 °F 41.0 °F 93% 29.96 in 10.0 mi Calm Calm - N/A   Clear
11:35 PM 42.8 °F 42.8 °F 100% 29.97 in 10.0 mi Calm Calm - N/A   Clear
11:55 PM 42.8 °F 41.0 °F 93% 29.97 in 10.0 mi Calm Calm - N/A   Clear